Location: Hickory_CSC
(35.7330°N, 81.3330°W)
Time: 05:23:34
(UTC-04:00)

ISS - All Passes

Search period start: 27 June 2016 00:00
Search period end: 07 July 2016 00:00
Orbit: 402 x 403 km, 51.6° (Epoch: 27 June)

Date Brightness Start Highest point End Pass type
(mag) Time Alt. Az. Time Alt. Az. Time Alt. Az.
27 Jun - 09:25:38 10° SW 09:28:51 59° SE 09:32:03 10° NE daylight
27 Jun - 11:03:25 10° WNW 11:05:32 16° NNW 11:07:40 10° NNE daylight
27 Jun - 15:56:01 10° NNW 15:58:39 22° NNE 16:01:16 10° E daylight
27 Jun - 17:32:09 10° WNW 17:35:08 34° SW 17:38:07 10° SSE daylight
28 Jun - 08:33:25 10° S 08:36:12 26° SE 08:38:59 10° ENE daylight
28 Jun - 10:09:48 10° W 10:12:36 26° NNW 10:15:24 10° NNE daylight
28 Jun - 15:03:52 10° N 15:05:40 14° NNE 15:07:28 10° ENE daylight
28 Jun - 16:39:12 10° NW 16:42:28 78° SW 16:45:43 10° SE daylight
29 Jun - 07:42:07 10° SSE 07:43:38 13° SE 07:45:09 10° E daylight
29 Jun - 09:16:34 10° WSW 09:19:44 49° NW 09:22:55 10° NE daylight
29 Jun - 15:46:31 10° NW 15:49:42 47° NE 15:52:51 10° ESE daylight
29 Jun - 17:24:12 10° W 17:25:48 13° SW 17:27:25 10° SSW daylight
30 Jun - 08:23:43 10° SW 08:26:58 76° SE 08:30:13 10° NE daylight
30 Jun - 10:01:55 10° WNW 10:03:45 14° NNW 10:05:35 10° N daylight
30 Jun - 14:54:02 10° NNW 14:56:50 25° NNE 14:59:36 10° E daylight
30 Jun - 16:30:25 10° WNW 16:33:14 27° SW 16:36:02 10° S daylight
01 Jul - 07:31:19 10° SSW 07:34:16 33° SE 07:37:15 10° ENE daylight
01 Jul - 09:08:07 10° W 09:10:45 22° NNW 09:13:24 10° NNE daylight
01 Jul - 14:01:46 10° NNW 14:03:51 16° NNE 14:05:57 10° ENE daylight
01 Jul - 15:37:20 10° NW 15:40:34 61° SW 15:43:46 10° SE daylight
02 Jul - 06:39:36 10° SSE 06:41:40 16° SE 06:43:44 10° E daylight
02 Jul - 08:14:45 10° WSW 08:17:51 39° NW 08:20:57 10° NE daylight
02 Jul - 13:10:05 10° N 13:10:47 10° NNE 13:11:29 10° NE daylight
02 Jul - 14:44:34 10° NW 14:47:48 60° NE 14:51:00 10° ESE daylight
02 Jul - 16:23:15 10° WSW 16:23:49 10° SW 16:24:25 10° SW daylight
03 Jul - 07:21:47 10° SW 07:25:02 85° NW 07:28:18 10° NE daylight
03 Jul - 09:00:24 10° NW 09:01:54 12° NNW 09:03:24 10° N daylight
03 Jul - 13:52:00 10° NNW 13:54:56 30° NE 13:57:51 10° E daylight
03 Jul - 15:28:40 10° WNW 15:31:15 22° SW 15:33:49 10° S daylight
04 Jul - 06:29:12 10° SSW 06:32:17 42° SE 06:35:24 10° ENE daylight
04 Jul - 08:06:25 10° W 08:08:51 19° NNW 08:11:18 10° NNE daylight
04 Jul - 12:59:37 10° NNW 13:01:58 18° NNE 13:04:18 10° ENE daylight
04 Jul - 14:35:25 10° WNW 14:38:35 47° SW 14:41:43 10° SSE daylight
05 Jul - 05:37:12 10° S 05:39:38 19° SE 05:42:04 10° E visible
05 Jul - 07:12:55 10° WSW 07:15:54 33° NW 07:18:54 10° NNE daylight
05 Jul - 12:07:37 10° N 12:08:53 12° NNE 12:10:11 10° NE daylight
05 Jul - 13:42:33 10° NW 13:45:49 75° NE 13:49:03 10° SE daylight
06 Jul - 06:19:47 10° SW 06:23:02 67° NW 06:26:16 10° NE daylight
06 Jul - 07:58:56 10° NW 08:00:00 11° NNW 08:01:01 10° N daylight
06 Jul - 12:49:54 10° NNW 12:52:57 36° NE 12:56:00 10° ESE daylight
06 Jul - 14:26:55 10° W 14:29:11 18° SW 14:31:27 10° S daylight
